DLH5TY LIEO-EDDF

Flight info

Callsign DLH5TY
Flight time 1h 39m
Altitude 36000
Route OKIVA P980 DIKEL DCT RATAP DCT MEGER DCT ERTEV DCT ABESI DCT LADOL T163 EMPAX EMPAX5B
Aircraft A320/M-SDE2E3FGIJ1LORWXYZ/HB1

Departure

Time 2026-05-05 14:43
Airport Olbia Costa Smeralda Airport (LIEO)

Arrival

Time 2026-05-05 16:22
Airport Frankfurt Main Airport (EDDF)
Time Latitude Longitude Altitude Speed Heading
2026-05-05 13:25 40.90180 9.51528 34 ft 0 kts 326°
2026-05-05 14:30 40.90179 9.51529 34 ft 0 kts 325°
2026-05-05 14:34 40.90178 9.51530 34 ft 2 kts 325°
2026-05-05 14:35 40.90159 9.51551 32 ft 4 kts 307°
2026-05-05 14:35 40.90146 9.51581 32 ft 4 kts 282°
2026-05-05 14:35 40.90146 9.51615 32 ft 4 kts 245°
2026-05-05 14:35 40.90149 9.51624 33 ft 0 kts 236°
2026-05-05 14:38 40.90149 9.51623 33 ft 1 kts 236°
2026-05-05 14:38 40.90131 9.51590 34 ft 7 kts 235°
2026-05-05 14:38 40.90106 9.51541 34 ft 7 kts 235°
2026-05-05 14:38 40.90076 9.51484 34 ft 7 kts 231°
2026-05-05 14:39 40.90034 9.51492 33 ft 7 kts 145°
2026-05-05 14:39 40.89985 9.51521 34 ft 13 kts 175°
2026-05-05 14:39 40.89895 9.51428 34 ft 19 kts 234°
2026-05-05 14:39 40.89824 9.51293 34 ft 17 kts 236°
2026-05-05 14:40 40.89754 9.51155 34 ft 19 kts 235°
2026-05-05 14:40 40.89681 9.51016 34 ft 18 kts 233°
2026-05-05 14:40 40.89611 9.50884 34 ft 18 kts 236°
2026-05-05 14:40 40.89544 9.50742 34 ft 18 kts 240°
2026-05-05 14:41 40.89474 9.50607 34 ft 17 kts 234°
2026-05-05 14:41 40.89402 9.50478 34 ft 18 kts 230°
2026-05-05 14:41 40.89292 9.50464 34 ft 17 kts 134°
2026-05-05 14:41 40.89262 9.50623 35 ft 13 kts 92°
2026-05-05 14:42 40.89321 9.50729 33 ft 20 kts 52°
2026-05-05 14:42 40.89477 9.51017 33 ft 68 kts 55°
2026-05-05 14:42 40.89876 9.51773 33 ft 129 kts 55°
2026-05-05 14:42 40.90261 9.52496 88 ft 156 kts 54°
2026-05-05 14:43 40.90859 9.53585 932 ft 138 kts 56°
2026-05-05 14:43 40.91401 9.54633 1630 ft 137 kts 59°
2026-05-05 14:43 40.91979 9.55749 2047 ft 158 kts 58°
2026-05-05 14:43 40.92635 9.57010 2404 ft 179 kts 56°
2026-05-05 14:44 40.93395 9.58462 2742 ft 202 kts 58°
2026-05-05 14:44 40.94251 9.60087 3090 ft 227 kts 56°
2026-05-05 14:44 40.95188 9.61852 3647 ft 244 kts 55°
2026-05-05 14:44 40.96180 9.63711 4461 ft 253 kts 54°
2026-05-05 14:45 40.97337 9.65500 5278 ft 259 kts 34°
2026-05-05 14:45 40.98991 9.66424 5824 ft 262 kts
2026-05-05 14:45 41.00806 9.66023 6257 ft 272 kts 329°
2026-05-05 14:45 41.02388 9.64672 7079 ft 275 kts 322°
2026-05-05 14:46 41.03990 9.63217 7977 ft 279 kts 322°
2026-05-05 14:46 41.05606 9.61755 8861 ft 283 kts 322°
2026-05-05 14:46 41.07241 9.60258 9738 ft 287 kts 319°
2026-05-05 14:46 41.08696 9.58420 10357 ft 296 kts 306°
2026-05-05 14:47 41.09969 9.56141 10684 ft 317 kts 302°
2026-05-05 14:47 41.11279 9.53722 11332 ft 325 kts 302°
2026-05-05 14:47 41.12611 9.51266 12107 ft 330 kts 302°
2026-05-05 14:47 41.13945 9.48809 12872 ft 334 kts 302°
2026-05-05 14:48 41.15319 9.46288 13639 ft 338 kts 303°
2026-05-05 14:48 41.16712 9.43737 14332 ft 343 kts 302°
2026-05-05 14:48 41.18116 9.41161 14998 ft 346 kts 302°
2026-05-05 14:48 41.19534 9.38554 15663 ft 349 kts 302°
2026-05-05 14:49 41.20948 9.35948 16318 ft 353 kts 302°
2026-05-05 14:49 41.22387 9.33287 16983 ft 356 kts 301°
2026-05-05 14:49 41.23803 9.30557 17644 ft 359 kts 300°
2026-05-05 14:49 41.25176 9.27760 18294 ft 362 kts 298°
2026-05-05 14:50 41.26531 9.24910 18864 ft 365 kts 298°
2026-05-05 14:50 41.27885 9.22040 19454 ft 367 kts 298°
2026-05-05 14:50 41.29254 9.19151 20045 ft 369 kts 298°
2026-05-05 14:50 41.30672 9.16340 20617 ft 374 kts 304°
2026-05-05 14:51 41.32547 9.13886 21182 ft 384 kts 318°
2026-05-05 14:51 41.34872 9.12062 21726 ft 394 kts 333°
2026-05-05 14:51 41.37532 9.11023 22279 ft 404 kts 347°
2026-05-05 14:51 41.40370 9.10849 22806 ft 412 kts 357°
2026-05-05 14:52 41.43250 9.10944 23345 ft 415 kts 357°
2026-05-05 14:52 41.46125 9.11046 23800 ft 418 kts 357°
2026-05-05 14:52 41.49042 9.11151 24210 ft 421 kts 357°
2026-05-05 14:52 41.51987 9.11256 24630 ft 424 kts 356°
2026-05-05 14:53 41.54952 9.11356 25045 ft 427 kts 356°
2026-05-05 14:53 41.57930 9.11411 25436 ft 429 kts 355°
2026-05-05 14:53 41.60924 9.11406 25841 ft 430 kts 354°
2026-05-05 14:53 41.63928 9.11361 26255 ft 433 kts 353°
2026-05-05 14:54 41.66920 9.11301 26644 ft 436 kts 353°
2026-05-05 14:54 41.69964 9.11245 27037 ft 438 kts 353°
2026-05-05 14:54 41.73028 9.11203 27422 ft 441 kts 353°
2026-05-05 14:54 41.76107 9.11173 27812 ft 443 kts 353°
2026-05-05 14:55 41.79203 9.11148 28196 ft 445 kts 352°
2026-05-05 14:55 41.82319 9.11127 28550 ft 448 kts 353°
2026-05-05 14:55 41.85417 9.11108 28938 ft 451 kts 352°
2026-05-05 14:55 41.88564 9.11090 29327 ft 453 kts 352°
2026-05-05 14:56 41.91729 9.11070 29675 ft 454 kts 352°
2026-05-05 14:56 41.94905 9.11044 30031 ft 457 kts 352°
2026-05-05 14:56 41.98104 9.11016 30339 ft 459 kts 352°
2026-05-05 14:56 42.01271 9.10989 30629 ft 462 kts 352°
2026-05-05 14:57 42.04497 9.10964 30899 ft 464 kts 352°
2026-05-05 14:57 42.07739 9.10941 31204 ft 466 kts 352°
2026-05-05 14:57 42.10991 9.10917 31509 ft 469 kts 352°
2026-05-05 14:57 42.14256 9.10895 31860 ft 468 kts 352°
2026-05-05 14:58 42.17518 9.10874 32205 ft 468 kts 352°
2026-05-05 14:58 42.20779 9.10851 32560 ft 467 kts 352°
2026-05-05 14:58 42.24037 9.10824 32888 ft 467 kts 351°
2026-05-05 14:58 42.27248 9.10799 33310 ft 467 kts 351°
2026-05-05 14:59 42.30499 9.10774 33646 ft 467 kts 351°
2026-05-05 14:59 42.33754 9.10747 34069 ft 465 kts 351°
2026-05-05 14:59 42.36984 9.10720 34426 ft 464 kts 351°
2026-05-05 14:59 42.40229 9.10694 34756 ft 463 kts 351°
2026-05-05 15:00 42.43409 9.10671 35055 ft 462 kts 351°
2026-05-05 15:00 42.45585 9.10655 35259 ft 462 kts 351°
2026-05-05 15:00 42.49855 9.10620 35653 ft 461 kts 352°
2026-05-05 15:00 42.53067 9.10594 35881 ft 460 kts 352°
2026-05-05 15:01 42.59395 9.10551 35957 ft 453 kts 351°
2026-05-05 15:01 42.65693 9.10497 35967 ft 451 kts 351°
2026-05-05 15:02 42.71969 9.10445 35959 ft 452 kts 353°
2026-05-05 15:02 42.78267 9.11119 35962 ft 457 kts 356°
2026-05-05 15:03 42.84626 9.11873 35966 ft 457 kts 356°
2026-05-05 15:03 42.90974 9.12621 35988 ft 457 kts 356°
2026-05-05 15:04 42.97275 9.13355 35971 ft 457 kts 356°
2026-05-05 15:04 43.03628 9.14098 35972 ft 457 kts 356°
2026-05-05 15:05 43.13115 9.15215 35976 ft 457 kts 356°
2026-05-05 15:06 43.19469 9.15958 35975 ft 458 kts 356°
2026-05-05 15:06 43.25824 9.16707 35972 ft 458 kts 356°
2026-05-05 15:07 43.32085 9.16680 35984 ft 441 kts 342°
2026-05-05 15:07 43.37786 9.14304 35973 ft 421 kts 325°
2026-05-05 15:08 43.42968 9.10655 35962 ft 418 kts 323°
2026-05-05 15:08 43.48158 9.06982 35991 ft 419 kts 323°
2026-05-05 15:09 43.53324 9.03319 35960 ft 420 kts 323°
2026-05-05 15:09 43.58526 8.99612 35949 ft 420 kts 323°
2026-05-05 15:10 43.64026 8.96557 35940 ft 438 kts 339°
2026-05-05 15:10 43.67047 8.95975 35938 ft 449 kts 349°
2026-05-05 15:10 43.70199 8.96020 35953 ft 455 kts 353°
2026-05-05 15:11 43.76549 8.96251 35952 ft 455 kts 353°
2026-05-05 15:11 43.82898 8.96454 35950 ft 455 kts 353°
2026-05-05 15:12 43.89204 8.96640 35975 ft 456 kts 353°
2026-05-05 15:12 43.95563 8.96840 35969 ft 456 kts 353°
2026-05-05 15:13 44.01875 8.97051 35960 ft 456 kts 353°
2026-05-05 15:13 44.08231 8.97262 35976 ft 456 kts 353°
2026-05-05 15:14 44.14558 8.97466 35952 ft 456 kts 353°
2026-05-05 15:14 44.20926 8.97670 35945 ft 457 kts 353°
2026-05-05 15:15 44.27275 8.97883 35971 ft 458 kts 354°
2026-05-05 15:15 44.33659 8.98103 35968 ft 458 kts 354°
2026-05-05 15:16 44.40003 8.98309 35966 ft 459 kts 354°
2026-05-05 15:16 44.46399 8.98522 35966 ft 459 kts 354°
2026-05-05 15:17 44.52793 8.98727 35964 ft 459 kts 354°
2026-05-05 15:17 44.59154 8.98931 35963 ft 459 kts 354°
2026-05-05 15:18 44.65552 8.99147 35971 ft 459 kts 355°
2026-05-05 15:18 44.71948 8.99363 35965 ft 459 kts 354°
2026-05-05 15:19 44.78311 8.99578 35956 ft 459 kts 354°
2026-05-05 15:19 44.84718 8.99791 35974 ft 459 kts 355°
2026-05-05 15:20 44.91119 9.00009 35966 ft 460 kts 355°
2026-05-05 15:20 44.97486 9.00213 35965 ft 460 kts 355°
2026-05-05 15:21 45.03895 9.00422 35976 ft 460 kts 355°
2026-05-05 15:21 45.10317 9.00634 35969 ft 461 kts 355°
2026-05-05 15:22 45.16694 9.00850 35971 ft 461 kts 355°
2026-05-05 15:22 45.23126 9.01073 35972 ft 461 kts 355°
2026-05-05 15:23 45.29550 9.01294 35985 ft 461 kts 355°
2026-05-05 15:23 45.35943 9.01512 35987 ft 461 kts 355°
2026-05-05 15:24 45.42374 9.01730 36010 ft 462 kts 356°
2026-05-05 15:24 45.48781 9.01945 35999 ft 462 kts 356°
2026-05-05 15:25 45.55227 9.02166 35994 ft 462 kts 356°
2026-05-05 15:25 45.61647 9.02385 35993 ft 462 kts 356°
2026-05-05 15:26 45.68095 9.02602 36017 ft 463 kts 355°
2026-05-05 15:26 45.74527 9.02827 35996 ft 464 kts 355°
2026-05-05 15:27 45.80986 9.03057 35989 ft 464 kts 355°
2026-05-05 15:27 45.87428 9.03285 35989 ft 465 kts 356°
2026-05-05 15:28 45.93900 9.03507 35988 ft 464 kts 356°
2026-05-05 15:28 46.00387 9.03724 35986 ft 465 kts 355°
2026-05-05 15:29 46.06830 9.03940 36005 ft 466 kts 356°
2026-05-05 15:29 46.13328 9.04169 36003 ft 466 kts 356°
2026-05-05 15:30 46.19774 9.04289 35999 ft 464 kts 353°
2026-05-05 15:30 46.26229 9.03984 36008 ft 463 kts 352°
2026-05-05 15:31 46.32649 9.03563 36005 ft 463 kts 352°
2026-05-05 15:31 46.39099 9.03234 35994 ft 463 kts 353°
2026-05-05 15:32 46.44471 9.03014 35996 ft 464 kts 353°
2026-05-05 15:32 46.50896 9.02763 35974 ft 464 kts 353°
2026-05-05 15:33 46.57342 9.02496 35973 ft 463 kts 353°
2026-05-05 15:33 46.63797 9.02199 35963 ft 464 kts 353°
2026-05-05 15:34 46.70220 9.01909 35934 ft 464 kts 353°
2026-05-05 15:34 46.76699 9.01631 35935 ft 464 kts 353°
2026-05-05 15:35 46.83123 9.01356 35927 ft 464 kts 353°
2026-05-05 15:35 46.89594 9.01075 35932 ft 464 kts 353°
2026-05-05 15:36 46.96057 9.00790 35899 ft 463 kts 353°
2026-05-05 15:36 47.02501 9.00499 35882 ft 462 kts 354°
2026-05-05 15:37 47.08942 9.00210 35889 ft 463 kts 354°
2026-05-05 15:37 47.15338 8.99924 35871 ft 461 kts 354°
2026-05-05 15:38 47.21762 8.99639 35863 ft 461 kts 354°
2026-05-05 15:38 47.28204 8.99352 35866 ft 461 kts 354°
2026-05-05 15:39 47.34583 8.99062 35862 ft 461 kts 354°
2026-05-05 15:39 47.41002 8.98770 35862 ft 461 kts 354°
2026-05-05 15:40 47.47414 8.98489 35862 ft 460 kts 355°
2026-05-05 15:40 47.53826 8.98202 35858 ft 460 kts 355°
2026-05-05 15:41 47.60179 8.97908 35851 ft 460 kts 355°
2026-05-05 15:41 47.66596 8.97622 35853 ft 460 kts 356°
2026-05-05 15:42 47.72957 8.97339 35855 ft 459 kts 356°
2026-05-05 15:42 47.79356 8.97041 35853 ft 459 kts 355°
2026-05-05 15:43 47.85767 8.96739 35855 ft 459 kts 355°
2026-05-05 15:43 47.92133 8.96451 35853 ft 459 kts 356°
2026-05-05 15:44 47.98532 8.96162 35853 ft 459 kts 356°
2026-05-05 15:44 48.04928 8.95867 35878 ft 459 kts 356°
2026-05-05 15:45 48.11283 8.95582 35847 ft 460 kts 357°
2026-05-05 15:45 48.17704 8.95489 35823 ft 462 kts
2026-05-05 15:46 48.24085 8.96458 35819 ft 464 kts
2026-05-05 15:46 48.30533 8.97430 35820 ft 465 kts
2026-05-05 15:47 48.36948 8.98396 35822 ft 465 kts
2026-05-05 15:47 48.43401 8.99382 35825 ft 466 kts
2026-05-05 15:48 48.49866 9.00348 35832 ft 466 kts
2026-05-05 15:48 48.56322 9.01268 35828 ft 466 kts
2026-05-05 15:49 48.62744 9.02185 35820 ft 466 kts
2026-05-05 15:49 48.69204 9.03112 35824 ft 466 kts
2026-05-05 15:50 48.75639 9.04027 35825 ft 466 kts
2026-05-05 15:50 48.82122 9.04922 35830 ft 467 kts
2026-05-05 15:51 48.88592 9.05810 35832 ft 466 kts
2026-05-05 15:51 48.95051 9.06703 35830 ft 465 kts
2026-05-05 15:52 49.01468 9.07564 35832 ft 466 kts
2026-05-05 15:52 49.07951 9.08426 35836 ft 466 kts
2026-05-05 15:53 49.14411 9.09287 35835 ft 466 kts
2026-05-05 15:53 49.20873 9.10145 35836 ft 466 kts
2026-05-05 15:54 49.27313 9.10994 35835 ft 466 kts
2026-05-05 15:54 49.33788 9.11849 35837 ft 466 kts
2026-05-05 15:55 49.40261 9.12705 35836 ft 466 kts
2026-05-05 15:55 49.46689 9.13558 35831 ft 466 kts
2026-05-05 15:56 49.53167 9.14418 35823 ft 466 kts
2026-05-05 15:56 49.59606 9.15279 35829 ft 467 kts
2026-05-05 15:56 49.62838 9.15712 35674 ft 464 kts
2026-05-05 15:57 49.66049 9.16136 34841 ft 460 kts
2026-05-05 15:57 49.69234 9.16522 34040 ft 454 kts
2026-05-05 15:57 49.72373 9.16863 33159 ft 449 kts
2026-05-05 15:57 49.75480 9.17181 32270 ft 444 kts
2026-05-05 15:58 49.78550 9.17492 31411 ft 438 kts
2026-05-05 15:58 49.81445 9.18443 30584 ft 426 kts 27°
2026-05-05 15:58 49.83859 9.20909 29751 ft 410 kts 50°
2026-05-05 15:58 49.85393 9.24483 28823 ft 393 kts 73°
2026-05-05 15:59 49.86186 9.28479 27927 ft 385 kts 78°
2026-05-05 15:59 49.86910 9.32463 27046 ft 381 kts 78°
2026-05-05 15:59 49.87726 9.36330 26207 ft 380 kts 67°
2026-05-05 15:59 49.89187 9.39744 25385 ft 382 kts 49°
2026-05-05 16:00 49.91267 9.42295 24585 ft 382 kts 30°
2026-05-05 16:00 49.93755 9.43667 23989 ft 376 kts 10°
2026-05-05 16:00 49.96327 9.43796 23522 ft 366 kts 352°
2026-05-05 16:00 49.98717 9.42789 23000 ft 359 kts 334°
2026-05-05 16:01 50.00804 9.40740 22462 ft 352 kts 316°
2026-05-05 16:01 50.02393 9.37874 21925 ft 350 kts 299°
2026-05-05 16:01 50.03374 9.34450 21410 ft 346 kts 282°
2026-05-05 16:01 50.03683 9.30767 20895 ft 341 kts 265°
2026-05-05 16:02 50.03316 9.27165 20465 ft 335 kts 249°
2026-05-05 16:02 50.02520 9.23781 19967 ft 335 kts 246°
2026-05-05 16:02 50.01693 9.20387 19468 ft 336 kts 246°
2026-05-05 16:02 50.00873 9.17034 19001 ft 337 kts 246°
2026-05-05 16:03 50.00037 9.13616 18531 ft 338 kts 246°
2026-05-05 16:03 49.99200 9.10192 18058 ft 339 kts 247°
2026-05-05 16:03 49.98368 9.06778 17526 ft 340 kts 248°
2026-05-05 16:03 49.97871 9.03171 16993 ft 344 kts 266°
2026-05-05 16:04 49.98223 8.99539 16484 ft 349 kts 291°
2026-05-05 16:04 49.99608 8.96457 15966 ft 353 kts 319°
2026-05-05 16:04 50.01763 8.94661 15463 ft 354 kts 346°
2026-05-05 16:04 50.04190 8.94565 14947 ft 346 kts 14°
2026-05-05 16:05 50.06305 8.96100 14481 ft 330 kts 38°
2026-05-05 16:05 50.07920 8.98538 13993 ft 318 kts 56°
2026-05-05 16:05 50.08920 9.01477 13511 ft 306 kts 75°
2026-05-05 16:05 50.09256 9.04688 12977 ft 295 kts 93°
2026-05-05 16:06 50.09147 9.07840 12456 ft 290 kts 96°
2026-05-05 16:06 50.09027 9.10972 11937 ft 287 kts 96°
2026-05-05 16:06 50.08918 9.14060 11490 ft 286 kts 93°
2026-05-05 16:06 50.09063 9.17148 10983 ft 285 kts 82°
2026-05-05 16:07 50.09582 9.20086 10488 ft 285 kts 71°
2026-05-05 16:07 50.10265 9.22979 10006 ft 283 kts 72°
2026-05-05 16:07 50.10937 9.25851 9512 ft 281 kts 72°
2026-05-05 16:07 50.11632 9.28699 8981 ft 280 kts 70°
2026-05-05 16:08 50.12374 9.31485 8461 ft 278 kts 69°
2026-05-05 16:08 50.13121 9.34271 7953 ft 277 kts 69°
2026-05-05 16:08 50.13859 9.37029 7435 ft 275 kts 69°
2026-05-05 16:08 50.14651 9.39733 6946 ft 274 kts 58°
2026-05-05 16:09 50.15943 9.41875 6453 ft 269 kts 34°
2026-05-05 16:09 50.17625 9.42989 5964 ft 261 kts
2026-05-05 16:09 50.19338 9.42975 5810 ft 238 kts 346°
2026-05-05 16:09 50.20829 9.42111 5816 ft 225 kts 327°
2026-05-05 16:10 50.22032 9.40604 5820 ft 221 kts 308°
2026-05-05 16:10 50.22853 9.38606 5817 ft 217 kts 290°
2026-05-05 16:10 50.23229 9.36333 5820 ft 215 kts 272°
2026-05-05 16:10 50.23147 9.34053 5816 ft 212 kts 255°
2026-05-05 16:11 50.22621 9.31921 5818 ft 210 kts 238°
2026-05-05 16:11 50.19835 9.26111 5817 ft 232 kts 241°
2026-05-05 16:12 50.19177 9.23802 5821 ft 233 kts 249°
2026-05-05 16:12 50.18104 9.19055 5826 ft 233 kts 249°
2026-05-05 16:13 50.16501 9.11911 5819 ft 229 kts 249°
2026-05-05 16:13 50.15998 9.09634 5815 ft 216 kts 249°
2026-05-05 16:13 50.15497 9.07462 5823 ft 212 kts 248°
2026-05-05 16:14 50.14499 9.03183 5719 ft 209 kts 248°
2026-05-05 16:14 50.13500 8.98906 5197 ft 208 kts 248°
2026-05-05 16:15 50.12508 8.94665 4710 ft 207 kts 248°
2026-05-05 16:15 50.11531 8.90497 4292 ft 204 kts 248°
2026-05-05 16:16 50.10566 8.86388 3546 ft 201 kts 248°
2026-05-05 16:16 50.09619 8.82361 2988 ft 185 kts 248°
2026-05-05 16:17 50.08814 8.78945 2994 ft 145 kts 248°
2026-05-05 16:17 50.08484 8.77546 2880 ft 137 kts 249°
2026-05-05 16:18 50.07845 8.74844 2568 ft 131 kts 248°
2026-05-05 16:18 50.07530 8.73513 2405 ft 131 kts 249°
2026-05-05 16:18 50.07009 8.71312 2118 ft 130 kts 249°
2026-05-05 16:19 50.06697 8.69997 1933 ft 129 kts 250°
2026-05-05 16:19 50.06386 8.68685 1769 ft 129 kts 250°
2026-05-05 16:19 50.05767 8.66076 1429 ft 129 kts 249°
2026-05-05 16:20 50.05142 8.63444 1064 ft 131 kts 249°
2026-05-05 16:20 50.04574 8.61051 738 ft 127 kts 249°
2026-05-05 16:21 50.03963 8.58468 407 ft 126 kts 247°
2026-05-05 16:22 50.03321 8.55793 347 ft 41 kts 252°
2026-05-05 16:22 50.03337 8.55272 346 ft 14 kts 281°
2026-05-05 16:23 50.03368 8.54960 342 ft 17 kts 258°
2026-05-05 16:23 50.03324 8.54773 338 ft 20 kts 249°
2026-05-05 16:23 50.03306 8.54481 336 ft 8 kts 341°
2026-05-05 16:24 50.03354 8.54455 335 ft 6 kts 341°
2026-05-05 16:24 50.03388 8.54437 338 ft 4 kts 341°
2026-05-05 16:24 50.03505 8.54370 346 ft 10 kts 339°
2026-05-05 16:25 50.03532 8.54292 344 ft 10 kts 281°
2026-05-05 16:25 50.03584 8.54204 348 ft 0 kts 340°